星链-34766(STARLINK-34766)

导读

STARLINK-34766是美国SpaceX公司星链计划的卫星,于2025年11月15日发射升空。星链项目旨在构建全球卫星互联网星座,该卫星加入后,进一步扩充了星链星座规模,可为全球尤其是偏远地区提供高速低延迟的宽带互联服务,推动全球网络覆盖与互联基础设施建设。

基本信息
目录编号:
66505
目录名称:
STARLINK-34766
国际标识:
2025-263W
轨道中心:
EARTH
卫星名称:
星链-34766
卫星全名:
星链-34766(STARLINK-34766)
卫星状态:
在轨 (已飞行300 天)
发射日期:
2025-11-15 UTC
国别 :
美国 (US)
星等 :
--
该卫星已列入 空间交会检测服务 Space Conjunction Data Service (SCDS) ,当前飞行风险评估等级: 无高风险
轨道信息
数据来源 国际轨道数据
星历时间: 2026-09-10T05:14:28+0800
1天前
查看轨道信息
半长轴: 6861.17km
偏心率: 0.0001379
轨道倾角: 43.003°
近地点辐角 266.406°
升交点赤经 30.070°
平近点角 93.664°
近地点: 482.086km
远地点: 483.98km
周期: 94.266分钟
每日圈数: 15.275855
详细信息
固有亮度:
5
最大亮度:
2.5
卫星平台:
Starlink V1.0
覆盖范围:
全球
运营商:
太空探索技术公司
运营商所在国:
美国
制造商(研发单位):
太空探索技术公司
制造商所在国:
美国
使用方式:
暂无
卫星简介
Starlink 计划是 SpaceX 推出的全球卫星互联网项目,通过发射低轨道卫星,为全球尤其是偏远地区提供高速、低延迟的互联网服务。自 2019 年起,Starlink 已部署数千颗卫星,旨在缩小全球数字鸿沟,推动互联网普及。该项目还为军事、航空等行业提供通信支持,带来广泛经济效益。
2D轨道图
3D轨道图
轨道高度分析图
轨道倾角分析图
轨道综合分析图
查看轨道综合分析图
交会数据列表
事件ID 空间交会对象 最接近时刻(TCA) 交会距离 交会风险概率(CRP) 交会风险指数(CRI) 操作
CDM_260913-211705-955406-650521
2026-09-13T
21:17:07+0000
0.291 km
中距离
2.944755E-4 高风险 0.84
CDM_260913-231105-990306-650521
2026-09-13T
23:11:13+0000
0.382 km
远距离
2.812754E-4 高风险 0.84
CDM_260913-035505-733406-650522
2026-09-13T
03:55:12+0000
0.576 km
远距离
9.780665E-5 中风险 0.75
CDM_260912-192005-670306-650522
2026-09-12T
19:20:00+0000
0.552 km
远距离
9.660962E-5 中风险 0.75
CDM_260913-154705-955406-650521
2026-09-13T
15:47:35+0000
0.564 km
远距离
6.582307E-5 中风险 0.71
CDM_260912-143405-733406-650522
2026-09-12T
14:34:53+0000
0.826 km
远距离
3.301572E-5 中风险 0.65
CDM_260911-032806-364706-650521
2026-09-11T
03:28:23+0000
0.636 km
远距离
2.58925E-5 中风险 0.63
CDM_260912-130005-733406-650522
2026-09-12T
13:00:44+0000
1.063 km
极远距离
1.404949E-5 中风险 0.58
CDM_260911-024106-364706-650521
2026-09-11T
02:41:19+0000
0.774 km
远距离
1.361579E-5 中风险 0.58
CDM_260913-035705-670306-650521
2026-09-13T
03:57:50+0000
1.325 km
极远距离
5.736154E-6 低风险 0.5
与全量物体交会距离演化趋势
与全量物体交会风险概率演化趋势